Preston, MN

1:22 PM CDT on April 28, 2017 (GMT -0500)
Preston

Weather History for KFKA - December, 2013

Change the Weather History Date:

Monday, December 23, 2013

  Actual Average (KRST) Record (KRST)
Temperature  
Mean Temperature -4 °F -  
Max Temperature 2 °F 22 °F 43 °F (1936)
Min Temperature -10 °F 7 °F -29 °F (1983)
Degree Days  
Heating Degree Days 69    
Moisture  
Dew Point -11 °F    
Average Humidity 76    
Maximum Humidity 82    
Minimum Humidity 70    
Precipitation  
Precipitation 0.00 in - - ()
Sea Level Pressure  
Sea Level Pressure 30.33 in    
Wind  
Wind Speed 11 mph (WNW)    
Max Wind Speed 16 mph    
Max Gust Speed 20 mph    
Visibility 7 miles    
Events Snow    
Averages and records for this station are not official NWS values.
T = Trace of Precipitation, MM = Missing Value Source: NWS Daily Summary

Daily Weather History Graph

Daily Weather History Graph

Search for Another Location

Airport or City:

Trip Planner

Search our weather history database for the weather conditions in past years. The results will help you decide how hot, cold, wet, or windy it might be!

Date:

Astronomy

Dec. 23, 2013 Rise Set
Actual Time 7:40 AM CST 4:35 PM CST
Civil Twilight 7:07 AM CST 5:08 PM CST
Nautical Twilight 6:30 AM CST 5:45 PM CST
Astronomical Twilight 5:55 AM CST 6:20 PM CST
Moon 10:57 PM CST (12/23) 10:55 AM CST (12/23)
Length of Visible Light 10h 01m
Length of Day
8h 55m
Waning Gibbous, 68% of the Moon is Illuminated
Dec 23
Waning Gibbous
Dec 25
Last Quarter
Jan 1
New
Jan 7
First Quarter
Jan 15
Full

Hourly Weather History & Observations

Time (CST) Temp. Windchill Dew Point Humidity Pressure Visibility Wind Dir Wind Speed Gust Speed Precip Events Conditions
12:12 AM 0.5 °F -14.6 °F -3.8 °F 82% 30.17 in 10.0 mi WNW 9.2 mph - N/A   Mostly Cloudy
12:33 AM 2.3 °F -14.2 °F -2.2 °F 81% 30.18 in 7.0 mi West 11.5 mph - N/A Snow Light Snow
12:53 AM 2.3 °F -16.4 °F -2.2 °F 81% 30.18 in 7.0 mi WNW 15.0 mph - N/A Snow Light Snow
1:12 AM 1.9 °F -17.5 °F -2.9 °F 80% 30.19 in 7.0 mi WNW 16.1 mph - N/A Snow Light Snow
1:33 AM 0.3 °F -18.3 °F -4.5 °F 80% 30.19 in 4.0 mi WNW 13.8 mph - N/A Snow Light Snow
1:52 AM -0.0 °F -18.0 °F -4.9 °F 80% 30.21 in 5.0 mi WNW 12.7 mph - N/A Snow Light Snow
2:13 AM -0.0 °F -19.4 °F -4.9 °F 80% 30.21 in 5.0 mi WNW 15.0 mph 19.6 mph N/A Snow Light Snow
2:32 AM -1.1 °F -20.1 °F -6.0 °F 80% 30.22 in 10.0 mi WNW 13.8 mph - N/A Snow Light Snow
2:53 AM -2.2 °F -19.9 °F -6.9 °F 80% 30.22 in 10.0 mi WNW 11.5 mph - N/A Snow Light Snow
3:12 AM -2.7 °F -22.1 °F -7.6 °F 80% 30.22 in 7.0 mi WNW 13.8 mph - N/A Snow Light Snow
3:33 AM -2.9 °F -18.8 °F -7.6 °F 80% 30.22 in 7.0 mi WNW 9.2 mph - N/A   Clear
3:52 AM -3.1 °F -20.1 °F -7.8 °F 80% 30.23 in - WNW 10.4 mph - N/A   Scattered Clouds
4:12 AM -3.1 °F -21.8 °F -7.8 °F 80% 30.23 in - WNW 12.7 mph - N/A   Scattered Clouds
4:33 AM -3.5 °F -20.5 °F -8.0 °F 81% 30.23 in - WNW 10.4 mph - N/A   Unknown
4:52 AM -4.2 °F -22.3 °F -8.7 °F 81% 30.24 in - WNW 11.5 mph - N/A   Clear
5:13 AM -4.9 °F -22.3 °F -9.8 °F 80% 30.25 in - WNW 10.4 mph - N/A   Clear
5:33 AM -5.8 °F -25.2 °F -10.7 °F 79% 30.25 in - WNW 12.7 mph - N/A   Clear
5:52 AM -6.3 °F -24.1 °F -11.2 °F 79% 30.26 in - WNW 10.4 mph - N/A   Clear
6:12 AM -6.9 °F -24.8 °F -12.1 °F 78% 30.26 in - WNW 10.4 mph - N/A   Clear
6:32 AM -7.6 °F -27.5 °F -12.8 °F 78% 30.27 in - WNW 12.7 mph - N/A   Clear
6:53 AM -7.8 °F -26.8 °F -13.0 °F 78% 30.28 in - WNW 11.5 mph - N/A   Clear
7:13 AM -8.1 °F -27.3 °F -13.2 °F 79% 30.28 in - WNW 11.5 mph - N/A   Clear
7:32 AM -8.5 °F -27.8 °F -13.9 °F 77% 30.29 in - WNW 11.5 mph - N/A   Clear
7:53 AM -8.7 °F -28.0 °F -14.1 °F 77% 30.30 in - WNW 11.5 mph - N/A   Clear
8:13 AM -8.5 °F -27.8 °F -14.1 °F 77% 30.30 in - WNW 11.5 mph - N/A   Clear
8:32 AM -8.1 °F -29.0 °F -14.1 °F 75% 30.31 in - WNW 13.8 mph - N/A   Clear
8:53 AM -7.8 °F -28.6 °F -13.9 °F 75% 30.32 in - WNW 13.8 mph - N/A   Clear
9:12 AM -7.6 °F -27.5 °F -13.9 °F 74% 30.32 in - WNW 12.7 mph - N/A   Clear
9:32 AM -6.9 °F -25.7 °F -13.4 °F 73% 30.32 in - WNW 11.5 mph - N/A   Clear
9:52 AM -6.0 °F -25.5 °F -13.0 °F 72% 30.33 in - WNW 12.7 mph - N/A   Clear
10:12 AM -5.3 °F -25.4 °F -12.5 °F 71% 30.34 in - WNW 13.8 mph - N/A   Clear
10:32 AM -4.7 °F -23.0 °F -11.7 °F 72% 30.34 in - WNW 11.5 mph - N/A   Scattered Clouds
10:52 AM -4.2 °F -23.2 °F -11.4 °F 71% 30.34 in - WNW 12.7 mph - N/A   Unknown
11:13 AM -4.0 °F -21.2 °F -11.4 °F 71% 30.34 in - WNW 10.4 mph - N/A   Clear
11:32 AM -3.1 °F -20.1 °F -10.5 °F 71% 30.34 in - WNW 10.4 mph - N/A   Clear
11:53 AM -2.7 °F -20.5 °F -10.5 °F 70% 30.34 in - NW 11.5 mph - N/A   Clear
12:12 PM -2.6 °F -20.3 °F -10.1 °F 70% 30.34 in - WNW 11.5 mph - N/A   Clear
12:32 PM -2.2 °F -20.7 °F -9.6 °F 71% 30.34 in - WNW 12.7 mph - N/A   Clear
12:53 PM -2.4 °F -20.9 °F -9.6 °F 71% 30.34 in - WNW 12.7 mph - N/A   Clear
1:12 PM -1.8 °F -19.4 °F -9.4 °F 70% 30.34 in - West 11.5 mph - N/A   Clear
1:33 PM -1.7 °F -19.2 °F -9.4 °F 70% 30.34 in - WNW 11.5 mph - N/A   Clear
1:52 PM -1.7 °F -20.0 °F -8.9 °F 71% 30.34 in - West 12.7 mph - N/A   Clear
2:13 PM -1.8 °F -21.0 °F -9.0 °F 71% 30.35 in - West 13.8 mph - N/A   Clear
2:33 PM -1.8 °F -20.2 °F -9.4 °F 70% 30.35 in - WNW 12.7 mph - N/A   Clear
2:52 PM -1.8 °F -20.2 °F -8.9 °F 72% 30.36 in - WNW 12.7 mph - N/A   Scattered Clouds
3:12 PM -2.2 °F -19.9 °F -9.4 °F 71% 30.36 in - WNW 11.5 mph - N/A   Unknown
3:33 PM -2.4 °F -19.2 °F -9.6 °F 71% 30.37 in - WNW 10.4 mph - N/A   Unknown
3:52 PM -3.1 °F -21.8 °F -10.3 °F 71% 30.38 in - NW 12.7 mph - N/A   Unknown
4:12 PM -4.0 °F -22.1 °F -10.3 °F 74% 30.38 in - WNW 11.5 mph - N/A   Clear
4:33 PM -5.4 °F -20.8 °F -11.0 °F 77% 30.39 in - WNW 8.1 mph - N/A   Clear
4:52 PM -5.8 °F -23.4 °F -11.2 °F 77% 30.39 in - WNW 10.4 mph - N/A   Clear
5:13 PM -5.8 °F -24.4 °F -11.4 °F 77% 30.39 in - WNW 11.5 mph - N/A   Unknown
5:32 PM -6.2 °F -23.9 °F -12.1 °F 75% 30.40 in - WNW 10.4 mph - N/A   Unknown
5:53 PM -6.2 °F -22.8 °F -11.9 °F 76% 30.40 in - WNW 9.2 mph - N/A   Overcast
6:12 PM -6.7 °F -23.5 °F -12.3 °F 77% 30.40 in - WNW 9.2 mph - N/A   Unknown
6:33 PM -7.1 °F -22.8 °F -13.0 °F 75% 30.41 in - WNW 8.1 mph - N/A   Unknown
6:52 PM -7.2 °F -24.2 °F -13.0 °F 76% 30.41 in - WNW 9.2 mph - N/A   Clear
7:13 PM -8.0 °F -25.0 °F -13.5 °F 77% 30.42 in - WNW 9.2 mph - N/A   Clear
7:32 PM -8.0 °F -23.9 °F -13.5 °F 77% 30.43 in - WNW 8.1 mph - N/A   Unknown
7:52 PM -8.3 °F -26.6 °F -13.9 °F 77% 30.43 in - NW 10.4 mph - N/A   Clear
8:13 PM -8.5 °F -25.7 °F -14.1 °F 77% 30.43 in - WNW 9.2 mph - N/A   Clear
8:32 PM -8.5 °F -25.7 °F -13.9 °F 77% 30.43 in - WNW 9.2 mph - N/A   Clear
8:53 PM -8.5 °F -24.5 °F -13.9 °F 77% 30.43 in - WNW 8.1 mph - N/A   Clear
9:12 PM -9.0 °F -25.2 °F -14.4 °F 77% 30.43 in - NW 8.1 mph - N/A   Clear
9:32 PM -9.6 °F -25.8 °F -14.8 °F 78% 30.42 in - NW 8.1 mph - N/A   Clear
9:53 PM -9.6 °F -25.8 °F -14.8 °F 78% 30.42 in - WNW 8.1 mph - N/A   Clear
10:12 PM -9.4 °F -25.6 °F -14.3 °F 79% 30.42 in - NW 8.1 mph - N/A   Clear
10:33 PM -9.4 °F -24.3 °F -14.3 °F 79% 30.43 in - WNW 6.9 mph - N/A   Clear
10:52 PM -10.1 °F -23.6 °F -15.0 °F 79% 30.42 in - NW 5.8 mph - N/A   Clear
11:12 PM -9.8 °F -21.3 °F -14.8 °F 78% 30.43 in - WNW 4.6 mph - N/A   Clear
11:33 PM -9.6 °F -24.5 °F -14.6 °F 78% 30.43 in - WNW 6.9 mph - N/A   Clear
11:52 PM -9.4 °F -24.3 °F -14.3 °F 79% 30.43 in - WNW 6.9 mph - N/A   Clear